星链-11079 [DTC] (STARLINK-11079 [DTC] )

导读 | 星芒AI

STARLINK-11079 [DTC] 是 SpaceX Starlink 项目中的一颗低轨通信卫星,属于第 5 批组网卫星(DTC 指代发射任务标识)。该卫星于 2020 年 11 月 24 日由猎鹰 9 号火箭从卡纳维拉尔角发射升空,部署在约 550 公里的近地轨道,用于提供全球宽带互联网服务。Starlink 卫星采用先进推进系统和激光通信技术,旨在提升网络速度与稳定性。STARLINK-11079 在轨运行良好,是 SpaceX 打造全球卫星互联网网络的重要组成部分。

基本信息
目录编号:
58708
目录名称:
STARLINK-11079
国际标识:
2024-002D
轨道中心:
EARTH
卫星名称:
星链-11079 [DTC]
卫星全名:
星链-11079 [DTC] (STARLINK-11079 [DTC] )
卫星状态:
在轨 (已飞行710 天)
发射日期:
2024-01-03 UTC
国别 :
美国 (US)
星等 :
--
轨道信息
数据来源 国际轨道数据
星历时间: 2025-12-12T18:24:50+0800
23小时前
查看轨道信息
半长轴: 6737.893km
偏心率: 0.0001026
轨道倾角: 53.159°
近地点辐角 114.675°
升交点赤经 344.091°
平近点角 245.438°
近地点: 359.066km
远地点: 360.45km
周期: 91.737分钟
每日圈数: 15.696999
详细信息
固有亮度:
5
最大亮度:
0.6
卫星平台:
Starlink v2.0 mini
覆盖范围:
全球
运营商:
太空探索技术公司
运营商所在国:
美国
制造商(研发单位):
太空探索技术公司
制造商所在国:
美国
使用方式:
暂无
卫星简介
星链(Starlink)计划是由太空探索技术公司(SpaceX)提出的一个巨型低轨卫星互联网星座项目,计划在2019年至2024年间在太空搭建由约1.2万颗卫星组成的“星链”网络,其中1584颗将部署在地球上空550千米处的近地轨道,并从2020年开始工作。该卫星仍在工作。
2D轨道图
3D轨道图
轨道高度分析图
轨道倾角分析图
轨道综合分析图
查看轨道综合分析图